Regional Weather Roundup
Issued by NWS

Home | Current Version | Previous Version | Text Only | Print | Product List | Glossary On
Versions: 1 2 3 4 5 6 7 8 9 10 11 12 13 14 15 16 17 18 19 20 21 22 23 24 25 26 27 28 29 30 31 32 33 34 35 36 37 38 39 40 41 42 43 44 45 46 47 48 49 50
000
ASUS44 KMEG 230610
RWRTN
TENNESSEE HOURLY STATE WEATHER ROUNDUP
NATIONAL WEATHER SERVICE MEMPHIS TN
100 AM CDT WED JUL 23 2014

TNZ002-004-019-021-049-052-054-088>092-230700-
WEST TENNESSEE

CITY           SKY/WX    TMP DP  RH WIND       PRES   REMARKS
MEMPHIS INTL   PTCLDY    80  69  69 CALM      30.08S
NWS MEMPHIS      N/A     74 N/A N/A MISG        N/A
JACKSON        CLEAR     73  70  90 CALM      30.07F
DYERSBURG      CLEAR     73  64  73 CALM      30.08S
UNION CITY     CLEAR     72  72 100 S5        30.06S
PARIS          CLEAR     70  68  93 CALM      30.08F
LEXINGTON      CLEAR     73  72  94 CALM      30.08S
SAVANNAH       CLEAR     73  73 100 CALM      30.09S
$$

TNZ008-025-027-028-033-062-065-066-230700-
NORTH MIDDLE TENNESSEE

CITY           SKY/WX    TMP DP  RH WIND       PRES   REMARKS
NASHVILLE      PTCLDY    75  72  90 CALM      30.08S
DICKSON        CLEAR     75  72  88 CALM      30.09S
PORTLAND       CLEAR     73  72  94 CALM      30.07F
CLARKSVILLE    CLEAR     78  73  84 SW5       30.06F
LEBANON        CLEAR     76  71  84 CALM      30.07S
SMYRNA         PTCLDY    76  73  90 CALM      30.08F
MURFREESBORO   CLEAR     77  71  81 CALM      30.08
COOKEVILLE     CLEAR     73  72  94 CALM      30.11S
LIVINGSTON     PTCLDY    75  69  81 SW6       30.12
CROSSVILLE     PTCLDY    71  68  90 CALM      30.16F
$$

TNZ061-075-076-078-094-096-097-230700-
SOUTH MIDDLE TENNESSEE

CITY           SKY/WX    TMP DP  RH WIND       PRES   REMARKS
LEWISBURG      CLOUDY    75  72  91 CALM      30.09S
FAYETTEVILLE   MOCLDY    70  70 100 CALM      30.11S
TULLAHOMA      CLEAR     72  70  94 CALM      30.12F
WINCHESTER     CLOUDY    70  70 100 CALM      30.12S
MCMINNVILLE    CLEAR     72  72 100 CALM      30.11F
COLUMBIA       PTCLDY    73  73 100 CALM      30.08S
SHELBYVILLE    CLOUDY    75  72  88 S3        30.11S
$$

TNZ017-018-042-046-047-230700-
NORTHEAST TENNESSEE

CITY           SKY/WX    TMP DP  RH WIND       PRES   REMARKS
TRI CITIES     CLEAR     69  66  90 CALM      30.12F
ELIZABETHTON   CLEAR     68  64  88 CALM      30.14F
$$

TNZ012-013-036-069-073-074-230700-
CENTRAL EAST TENNESSEE

CITY           SKY/WX    TMP DP  RH WIND       PRES   REMARKS
KNOXVILLE      MOCLDY    75  70  84 W7        30.09F
OAK RIDGE      MOCLDY    77  72  84 CALM      30.11F
GATLINBURG     CLOUDY    73  70  88 CALM      30.10S
MORRISTOWN     CLEAR     72  72 100 CALM      30.12F
$$

TNZ083-085-099-230700-
SOUTHEAST TENNESSEE

CITY           SKY/WX    TMP DP  RH WIND       PRES   REMARKS
CHATTANOOGA    PTCLDY    74  70  87 CALM      30.11F
$$

SKY/WX REPORTED AS FAIR MEANS FEW OR NO CLOUDS BELOW
12 THOUSAND FEET.



USA.gov is the U.S. government's official web portal to all federal, state and local government web resources and services.